GW3385 Weather Reports


time (UTC)temp
F
wind
direction
speed
knots
gust
knots
rain 1hr
in
rain 24hr
in
rain mn
in
humidity
%
barometer
mb
20260831085056 68 0 0.9 2.6 0.00 0.00 0.00 82 1011.5
20260831084611 68 78 0.9 2.6 0.00 0.00 0.00 82 1011.5
20260831084055 68 0 0.0 0.0 0.00 0.00 0.00 82 1011.5
20260831083555 68 0 0.0 0.0 0.00 0.00 0.00 82 1011.5
20260831083108 68 0 0.0 0.0 0.00 0.00 0.00 83 1011.4
20260831082552 68 0 0.0 2.6 0.00 0.00 0.00 83 1011.5
20260831082055 68 0 0.0 2.6 0.00 0.00 0.00 83 1011.5
20260831081601 68 84 0.0 2.6 0.00 0.00 0.00 84 1011.4
20260831081052 68 0 0.0 1.7 0.00 0.00 0.00 84 1011.4
20260831080555 68 0 0.0 1.7 0.00 0.00 0.00 84 1011.5
20260831080105 68 63 0.0 1.7 0.00 0.00 0.00 84 1011.6
20260831075556 68 0 0.0 1.7 0.00 0.00 0.00 84 1011.5
20260831075056 68 63 0.0 1.7 0.00 0.00 0.00 84 1011.6
20260831074557 68 63 0.0 0.0 0.00 0.00 0.00 84 1011.4
20260831074055 68 0 0.0 1.7 0.00 0.00 0.00 84 1011.3
20260831073555 68 0 0.0 1.7 0.00 0.00 0.00 84 1011.4
20260831073105 68 0 0.0 0.0 0.00 0.00 0.00 84 1011.2
20260831072555 68 0 0.0 0.0 0.00 0.00 0.00 84 1011.2
20260831072052 68 0 0.0 0.0 0.00 0.00 0.00 84 1011.1
20260831071609 68 0 0.0 0.0 0.00 0.00 0.00 84 1011.1
20260831071052 69 0 0.0 0.0 0.00 0.00 0.00 83 1011.1
20260831070556 69 0 0.0 0.0 0.00 0.00 0.00 83 1011.2
20260831070116 69 0 0.0 0.0 0.00 0.00 0.00 83 1011.1
20260831065555 69 0 0.0 1.7 0.00 0.00 0.00 83 1011.1
20260831065058 69 0 0.0 1.7 0.00 0.00 0.00 82 1011.2
20260831064604 69 0 0.0 2.6 0.00 0.00 0.00 82 1011.2
20260831064051 69 0 0.0 3.5 0.00 0.00 0.00 82 1011.2
20260831063552 69 91 1.7 3.5 0.00 0.00 0.00 81 1011.1
20260831063100 69 90 0.9 2.6 0.00 0.00 0.00 82 1011.1
20260831062558 69 0 0.0 0.0 0.00 0.00 0.00 82 1011.2
20260831062057 69 0 0.0 0.0 0.00 0.00 0.00 82 1011.2
20260831061557 69 0 0.0 1.7 0.00 0.00 0.00 82 1011.3
20260831061056 69 0 0.0 1.7 0.00 0.00 0.00 82 1011.3
20260831060555 70 0 0.0 1.7 0.00 0.00 0.00 81 1011.2
20260831060059 70 0 0.0 0.0 0.00 0.00 0.00 82 1011.3
20260831055552 70 0 0.0 0.0 0.00 0.00 0.00 82 1011.3
20260831055055 70 0 0.0 2.6 0.00 0.00 0.00 82 1011.2
20260831054605 70 0 0.0 2.6 0.00 0.00 0.00 82 1011.2
20260831054052 70 107 0.0 0.9 0.00 0.00 0.00 82 1011.2
20260831053559 70 0 0.0 1.7 0.00 0.00 0.00 82 1011.3
20260831053101 70 0 0.0 2.6 0.00 0.00 0.00 81 1011.2
20260831052556 70 181 0.0 2.6 0.00 0.00 0.00 81 1011.1
20260831052055 71 0 0.0 2.6 0.00 0.00 0.00 81 1011.2
20260831051559 71 0 0.0 2.6 0.00 0.00 0.00 80 1011.1
20260831051055 71 0 0.0 2.6 0.00 0.00 0.00 80 1011.2
20260831050555 71 0 0.0 3.5 0.00 0.00 0.00 80 1011.2
20260831050059 71 0 0.0 3.5 0.00 0.00 0.00 79 1011.3
20260831045556 71 189 0.9 3.5 0.00 0.00 0.00 79 1011.3
20260831045056 71 0 0.0 3.5 0.00 0.00 0.00 79 1011.3
20260831044607 71 164 0.0 2.6 0.00 0.00 0.00 78 1011.3
20260831044055 71 0 0.0 0.0 0.00 0.00 0.00 78 1011.2
20260831043555 71 0 0.0 0.0 0.00 0.00 0.00 78 1011.2
20260831043058 71 0 0.0 0.0 0.00 0.00 0.00 78 1011.1
20260831042557 71 0 0.0 2.6 0.00 0.00 0.00 79 1011.0
20260831042056 71 0 0.0 2.6 0.00 0.00 0.00 79 1010.9
20260831041603 71 0 0.9 2.6 0.00 0.00 0.00 79 1010.9
20260831041056 71 197 0.9 2.6 0.00 0.00 0.00 78 1010.9
20260831040556 71 217 0.0 1.7 0.00 0.00 0.00 78 1010.9
20260831040108 71 0 0.0 2.6 0.00 0.00 0.00 78 1010.8
20260831035555 72 178 0.0 3.5 0.00 0.00 0.00 78 1010.8
20260831035052 72 0 0.9 3.5 0.00 0.00 0.00 78 1010.7
20260831034558 72 182 0.0 0.0 0.00 0.00 0.00 78 1010.6
20260831034058 72 0 0.0 0.0 0.00 0.00 0.00 78 1010.5
20260831033556 72 0 0.0 0.0 0.00 0.00 0.00 77 1010.3
20260831033102 72 0 0.0 0.0 0.00 0.00 0.00 77 1010.3
20260831032556 72 0 0.0 0.0 0.00 0.00 0.00 77 1010.2
20260831032058 72 0 0.0 0.0 0.00 0.00 0.00 78 1010.1
20260831031601 72 0 0.0 3.5 0.00 0.00 0.00 78 1010.1
20260831031059 73 0 0.0 3.5 0.00 0.00 0.00 78 1010.1
20260831030556 73 182 0.0 2.6 0.00 0.00 0.00 77 1010.0
20260831030121 73 0 0.9 3.5 0.00 0.00 0.00 77 1010.0
20260831025556 73 185 1.7 3.5 0.00 0.00 0.00 77 1010.1
20260831025056 74 0 0.9 2.6 0.00 0.00 0.00 76 1010.1
20260831024626 74 190 0.0 2.6 0.00 0.00 0.00 75 1010.1
20260831024056 74 0 0.9 2.6 0.00 0.00 0.00 75 1010.1
20260831023555 74 190 0.0 1.7 0.00 0.00 0.00 74 1010.0
20260831023128 74 0 0.0 3.5 0.00 0.00 0.00 73 1010.0
20260831022556 74 257 0.0 4.3 0.00 0.00 0.00 73 1009.9
20260831022056 74 0 0.9 6.1 0.00 0.00 0.00 73 1009.9
20260831021623 74 0 1.7 6.1 0.00 0.00 0.00 72 1009.9
20260831021052 75 198 3.5 7.0 0.00 0.00 0.00 72 1009.9
20260831020556 75 183 2.6 7.0 0.00 0.00 0.00 72 1009.8
20260831020116 75 164 1.7 4.3 0.00 0.00 0.00 72 1009.8
20260831015555 75 0 1.7 6.1 0.00 0.00 0.00 71 1009.8
20260831015055 75 180 2.6 7.8 0.00 0.00 0.00 71 1009.8
20260831014631 75 164 3.5 7.8 0.00 0.00 0.00 69 1009.7
20260831014055 76 203 3.5 7.8 0.00 0.00 0.00 70 1009.8
20260831013556 76 197 3.5 7.8 0.00 0.00 0.00 70 1009.9
20260831013102 76 234 1.7 7.8 0.00 0.00 0.00 71 1009.8
20260831012555 76 194 3.5 7.8 0.00 0.00 0.00 70 1009.8
20260831012052 76 162 4.3 7.8 0.00 0.00 0.00 69 1009.7
20260831011617 76 196 1.7 7.8 0.00 0.00 0.00 71 1009.8
20260831011051 76 174 3.5 8.7 0.00 0.00 0.00 70 1009.8
20260831010555 76 271 3.5 8.7 0.00 0.00 0.00 71 1009.7
20260831010106 76 315 2.6 8.7 0.00 0.00 0.00 73 1009.7
20260831005556 75 270 5.2 9.6 0.00 0.00 0.00 74 1009.7
20260831005058 75 285 2.6 9.6 0.00 0.00 0.00 74 1009.6
20260831004606 75 301 2.6 10.4 0.00 0.00 0.00 75 1009.7
20260831004056 75 189 5.2 12.2 0.00 0.00 0.00 73 1009.6
20260831003555 76 189 6.1 12.2 0.00 0.00 0.00 72 1009.6
20260831003105 76 273 4.3 11.3 0.00 0.00 0.00 72 1009.6
20260831002600 76 267 5.2 11.3 0.00 0.00 0.00 72 1009.7
20260831002055 77 272 3.5 9.6 0.00 0.00 0.00 71 1009.6
20260831001605 77 136 5.2 9.6 0.00 0.00 0.00 71 1009.5
20260831001120 77 227 2.6 9.6 0.00 0.00 0.00 72 1009.5
20260831000555 77 292 5.2 10.4 0.00 0.00 0.00 71 1009.5
20260831000105 77 188 3.5 10.4 0.00 0.00 0.00 71 1009.5
20260830235551 77 267 4.3 10.4 0.00 0.00 0.00 69 1009.7
20260830235056 78 261 6.1 10.4 0.00 0.00 0.00 67 1009.6
20260830234601 78 265 3.5 8.7 0.00 0.00 0.00 69 1009.6
20260830234055 78 180 3.5 11.3 0.00 0.00 0.00 67 1009.7
20260830233555 78 235 2.6 11.3 0.00 0.00 0.00 67 1009.6
20260830233108 78 294 7.8 11.3 0.00 0.00 0.00 65 1009.5
20260830232558 79 218 4.3 10.4 0.00 0.00 0.00 67 1009.6
20260830232055 79 271 6.1 10.4 0.00 0.00 0.00 63 1009.6
20260830231607 80 224 6.1 10.4 0.00 0.00 0.00 64 1009.7
20260830231055 80 290 3.5 10.4 0.00 0.00 0.00 61 1009.7
20260830230552 80 254 5.2 10.4 0.00 0.00 0.00 63 1009.7
20260830230106 81 188 4.3 8.7 0.00 0.00 0.00 62 1009.9
20260830225556 81 160 3.5 10.4 0.00 0.00 0.00 62 1009.8
20260830225056 80 183 3.5 10.4 0.00 0.00 0.00 63 1009.7
20260830224621 80 265 4.3 10.4 0.00 0.00 0.00 65 1009.9
20260830224056 80 282 6.1 11.3 0.00 0.00 0.00 63 1009.9
20260830223556 80 256 5.2 11.3 0.00 0.00 0.00 63 1009.9
20260830223103 81 251 4.3 10.4 0.00 0.00 0.00 63 1010.0
20260830222559 81 229 4.3 9.6 0.00 0.00 0.00 63 1010.1
20260830222052 81 265 4.3 8.7 0.00 0.00 0.00 63 1010.2
20260830221620 81 208 3.5 9.6 0.00 0.00 0.00 63 1010.2
20260830221052 81 192 5.2 9.6 0.00 0.00 0.00 64 1010.3
20260830220552 81 247 4.3 9.6 0.00 0.00 0.00 63 1010.5
20260830220104 81 181 3.5 10.4 0.00 0.00 0.00 64 1010.4
20260830215556 81 291 4.3 10.4 0.00 0.00 0.00 62 1010.5
20260830215056 81 273 5.2 10.4 0.00 0.00 0.00 65 1010.6
20260830214606 82 238 1.7 9.6 0.00 0.00 0.00 64 1010.7
20260830214052 81 250 6.1 9.6 0.00 0.00 0.00 63 1010.8
20260830213554 81 240 5.2 10.4 0.00 0.00 0.00 61 1010.9
20260830213102 81 144 2.6 12.2 0.00 0.00 0.00 62 1010.9
20260830212556 81 264 6.1 12.2 0.00 0.00 0.00 62 1011.0
20260830212058 81 200 4.3 9.6 0.00 0.00 0.00 63 1011.0
20260830211559 81 169 3.5 10.4 0.00 0.00 0.00 63 1011.1
20260830211059 81 186 5.2 10.4 0.00 0.00 0.00 64 1011.1
20260830210555 81 170 5.2 11.3 0.00 0.00 0.00 63 1011.1
20260830210110 81 315 5.2 11.3 0.00 0.00 0.00 62 1011.2
20260830205555 82 180 4.3 10.4 0.00 0.00 0.00 59 1011.2
20260830205058 82 209 3.5 11.3 0.00 0.00 0.00 63 1011.2
20260830204601 81 180 6.1 11.3 0.00 0.00 0.00 62 1011.3
20260830204058 82 213 4.3 9.6 0.00 0.00 0.00 63 1011.3
20260830203552 81 195 3.5 15.6 0.00 0.00 0.00 63 1011.3
20260830203102 82 250 6.1 15.6 0.00 0.00 0.00 62 1011.4
20260830202556 82 207 2.6 10.4 0.00 0.00 0.00 63 1011.3
20260830202056 82 211 4.3 10.4 0.00 0.00 0.00 61 1011.4
20260830201614 82 232 2.6 12.2 0.00 0.00 0.00 63 1011.4
20260830201056 81 209 4.3 12.2 0.00 0.00 0.00 65 1011.3
20260830200555 81 265 4.3 9.6 0.00 0.00 0.00 66 1011.3
20260830200113 81 238 4.3 8.7 0.00 0.00 0.00 65 1011.3
20260830195557 81 295 2.6 9.6 0.00 0.00 0.00 65 1011.2
20260830195059 80 206 4.3 11.3 0.00 0.00 0.00 66 1011.3
20260830194605 80 201 4.3 11.3 0.00 0.00 0.00 66 1011.4
20260830194058 80 222 4.3 12.2 0.00 0.00 0.00 66 1011.4
20260830193555 80 270 5.2 12.2 0.00 0.00 0.00 68 1011.4
20260830193110 80 284 7.0 12.2 0.00 0.00 0.00 68 1011.5
20260830192556 80 254 4.3 10.4 0.00 0.00 0.00 66 1011.5
20260830192058 80 194 5.2 9.6 0.00 0.00 0.00 65 1011.6
20260830191613 80 276 4.3 10.4 0.00 0.00 0.00 67 1011.7
20260830191055 81 281 3.5 10.4 0.00 0.00 0.00 66 1011.7
20260830190555 81 285 3.5 11.3 0.00 0.00 0.00 66 1011.7
20260830190109 80 269 4.3 11.3 0.00 0.00 0.00 68 1011.6
20260830185555 80 266 2.6 10.4 0.00 0.00 0.00 65 1011.6
20260830185056 80 169 4.3 10.4 0.00 0.00 0.00 65 1011.6
20260830184609 80 182 3.5 10.4 0.00 0.00 0.00 64 1011.6
20260830184052 81 141 4.3 8.7 0.00 0.00 0.00 64 1011.6
20260830183552 81 261 4.3 9.6 0.00 0.00 0.00 65 1011.6
20260830183105 81 199 3.5 9.6 0.00 0.00 0.00 64 1011.6
20260830182556 82 266 3.5 9.6 0.00 0.00 0.00 63 1011.6
20260830182056 82 206 3.5 8.7 0.00 0.00 0.00 61 1011.6
20260830181556 83 159 2.6 7.8 0.00 0.00 0.00 61 1011.6
20260830181055 82 203 1.7 6.1 0.00 0.00 0.00 61 1011.6
20260830180556 82 221 1.7 6.1 0.00 0.00 0.00 61 1011.6
20260830180107 82 229 2.6 6.1 0.00 0.00 0.00 60 1011.8
20260830175555 82 268 0.0 3.5 0.00 0.00 0.00 60 1011.7
20260830175055 82 0 0.0 6.1 0.00 0.00 0.00 61 1011.8
20260830174557 82 90 0.9 7.0 0.00 0.00 0.00 60 1011.8
20260830174055 81 191 1.7 7.0 0.00 0.00 0.00 60 1011.8
20260830173555 81 169 1.7 5.2 0.00 0.00 0.00 61 1011.7
20260830173112 81 182 2.6 5.2 0.00 0.00 0.00 62 1011.7
20260830172559 81 0 0.9 4.3 0.00 0.00 0.00 64 1011.7
20260830172055 80 293 0.0 3.5 0.00 0.00 0.00 67 1011.6
20260830171612 79 0 0.0 5.2 0.00 0.00 0.00 68 1011.5
20260830171055 80 218 0.9 5.2 0.00 0.00 0.00 68 1011.6
20260830170555 80 227 0.0 3.5 0.00 0.00 0.00 69 1011.7
20260830170106 79 0 0.0 6.1 0.00 0.00 0.00 70 1011.7
20260830165555 79 30 1.7 6.1 0.00 0.00 0.00 69 1011.7
20260830165052 80 101 2.6 5.2 0.00 0.00 0.00 68 1011.8
20260830164613 80 79 1.7 5.2 0.00 0.00 0.00 67 1011.6
20260830164055 79 193 1.7 5.2 0.00 0.00 0.00 70 1011.6
20260830163552 79 0 0.9 3.5 0.00 0.00 0.00 70 1011.6
20260830163103 79 360 0.9 3.5 0.00 0.00 0.00 69 1011.5
20260830162556 78 79 0.9 5.2 0.00 0.00 0.00 71 1011.6
20260830162057 78 0 1.7 5.2 0.00 0.00 0.00 72 1011.6
20260830161613 78 113 0.9 5.2 0.00 0.00 0.00 73 1011.6
20260830161056 78 100 1.7 3.5 0.00 0.00 0.00 73 1011.6
20260830160558 78 43 0.9 3.5 0.00 0.00 0.00 73 1011.6
20260830160100 77 50 0.0 5.2 0.00 0.00 0.00 74 1011.6
20260830155552 77 109 0.9 5.2 0.00 0.00 0.00 75 1011.6
20260830155052 76 123 0.0 6.1 0.00 0.00 0.00 76 1011.6
20260830154608 76 125 0.9 6.1 0.00 0.00 0.00 76 1011.5
20260830154059 76 107 1.7 6.1 0.00 0.00 0.00 75 1011.6
20260830153600 76 61 0.0 2.6 0.00 0.00 0.00 76 1011.5
20260830153105 76 175 0.9 5.2 0.00 0.00 0.00 77 1011.5
20260830152555 75 78 1.7 5.2 0.00 0.00 0.00 77 1011.5
20260830152056 75 101 0.9 3.5 0.00 0.00 0.00 77 1011.7
20260830151607 75 139 0.9 3.5 0.00 0.00 0.00 77 1011.6
20260830151056 75 41 0.0 3.5 0.00 0.00 0.00 77 1011.6
20260830150555 75 0 0.0 0.0 0.00 0.00 0.00 77 1011.6
20260830150101 74 0 0.0 0.9 0.00 0.00 0.00 78 1011.7
20260830145555 74 0 0.0 0.9 0.00 0.00 0.00 78 1011.6
20260830145055 73 0 0.0 0.0 0.00 0.00 0.00 80 1011.5
20260830144556 72 0 0.0 0.0 0.00 0.00 0.00 81 1011.5
20260830144052 71 0 0.0 0.0 0.00 0.00 0.00 83 1011.5
20260830143552 71 0 0.0 0.0 0.00 0.00 0.00 84 1011.5
20260830143114 70 0 0.0 0.0 0.00 0.00 0.00 84 1011.5
20260830142553 70 0 0.0 0.0 0.00 0.00 0.00 84 1011.4
20260830142057 69 0 0.0 0.0 0.00 0.00 0.00 83 1011.3
20260830141558 69 0 0.0 0.0 0.00 0.00 0.00 84 1011.4
20260830141058 69 0 0.0 0.0 0.00 0.00 0.00 84 1011.3
20260830140558 69 0 0.0 0.0 0.00 0.00 0.00 85 1011.3
20260830140100 69 0 0.0 0.0 0.00 0.00 0.00 85 1011.2
20260830135555 69 0 0.0 0.0 0.00 0.00 0.00 84 1011.1
20260830135055 69 0 0.0 0.0 0.00 0.00 0.00 84 1011.2
20260830134558 69 0 0.0 0.0 0.00 0.00 0.00 84 1011.2
20260830134052 69 0 0.0 0.0 0.00 0.00 0.00 84 1011.1
20260830133552 69 0 0.0 0.0 0.00 0.00 0.00 85 1010.9
20260830133101 69 0 0.0 0.0 0.00 0.00 0.00 85 1011.0
20260830132555 69 0 0.0 0.0 0.00 0.00 0.00 85 1010.9
20260830132056 69 0 0.0 0.0 0.00 0.00 0.00 84 1010.8
20260830131558 69 0 0.0 0.0 0.00 0.00 0.00 84 1010.8
20260830131056 69 0 0.0 0.0 0.00 0.00 0.00 85 1010.7
20260830130556 69 0 0.0 0.0 0.00 0.00 0.00 85 1010.7
20260830130107 69 0 0.0 0.0 0.00 0.00 0.00 85 1010.7
20260830125555 69 0 0.0 0.0 0.00 0.00 0.00 85 1010.7
20260830125055 69 0 0.0 0.0 0.00 0.00 0.00 85 1010.6
20260830124603 69 0 0.0 0.0 0.00 0.00 0.00 85 1010.7
20260830124055 69 0 0.0 0.0 0.00 0.00 0.00 85 1010.6
20260830123555 69 0 0.0 0.0 0.00 0.00 0.00 85 1010.6
20260830123125 69 0 0.0 0.9 0.00 0.00 0.00 86 1010.4
20260830122555 69 0 0.0 2.6 0.00 0.00 0.00 86 1010.2
20260830122100 69 0 0.0 2.6 0.00 0.00 0.00 86 1010.4
20260830121602 69 0 0.0 2.6 0.00 0.00 0.00 86 1010.3
20260830121059 69 0 0.0 1.7 0.00 0.00 0.00 86 1010.4
20260830120555 69 0 0.0 1.7 0.00 0.00 0.00 87 1010.3
20260830120100 69 333 0.0 0.0 0.00 0.00 0.00 87 1010.3
20260830115556 69 0 0.0 0.0 0.00 0.00 0.00 87 1010.3
20260830115057 69 0 0.0 0.0 0.00 0.00 0.00 87 1010.3
20260830114609 69 0 0.0 0.0 0.00 0.00 0.00 87 1010.4
20260830114054 69 0 0.0 0.0 0.00 0.00 0.00 87 1010.3
20260830113555 69 0 0.0 0.0 0.00 0.00 0.00 87 1010.3
20260830113100 69 0 0.0 0.0 0.00 0.00 0.00 87 1010.2
20260830112555 69 0 0.0 0.0 0.00 0.00 0.00 87 1010.2
20260830112055 69 0 0.0 0.0 0.00 0.00 0.00 87 1010.2
20260830111557 69 0 0.0 0.0 0.00 0.00 0.00 87 1010.2
20260830111059 69 0 0.0 0.0 0.00 0.00 0.00 87 1010.1
20260830110556 69 0 0.0 0.0 0.00 0.00 0.00 87 1010.1
20260830110058 69 0 0.0 1.7 0.00 0.00 0.00 87 1010.2
20260830105555 69 0 0.0 2.6 0.00 0.00 0.00 87 1010.2
20260830105055 69 0 0.0 2.6 0.00 0.00 0.00 87 1010.2
20260830104600 69 334 0.0 2.6 0.00 0.00 0.00 87 1010.2
20260830104056 70 0 0.0 0.0 0.00 0.00 0.00 87 1010.2
20260830103556 70 0 0.0 1.7 0.00 0.00 0.00 87 1010.2
20260830103107 70 0 0.0 2.6 0.00 0.00 0.00 87 1010.3
20260830102555 70 0 0.9 2.6 0.00 0.00 0.00 86 1010.2
20260830102055 70 0 0.0 0.9 0.00 0.00 0.00 86 1010.5
20260830101606 70 0 0.0 0.0 0.00 0.00 0.00 87 1010.4
20260830101052 70 0 0.0 0.0 0.00 0.00 0.00 86 1010.4
20260830100555 70 0 0.0 0.0 0.00 0.00 0.00 86 1010.4
20260830095555 70 0 0.0 1.7 0.00 0.00 0.00 86 1010.2
20260830095055 70 0 0.0 1.7 0.00 0.00 0.00 86 1010.3
20260830094559 70 341 0.0 1.7 0.00 0.00 0.00 86 1010.2
20260830094055 70 0 0.0 0.0 0.00 0.00 0.00 86 1010.2
20260830093555 70 0 0.0 0.9 0.00 0.00 0.00 85 1010.3
20260830093112 70 0 0.0 0.9 0.00 0.00 0.00 85 1010.2
20260830092559 70 0 0.0 1.7 0.00 0.00 0.00 85 1010.2
20260830092059 70 0 0.0 1.7 0.00 0.00 0.00 85 1010.3
20260830091609 70 0 0.0 0.0 0.00 0.00 0.00 85 1010.3
20260830091056 70 0 0.0 1.7 0.00 0.00 0.00 85 1010.4
20260830090558 70 0 0.0 1.7 0.00 0.00 0.00 85 1010.4
20260830090106 71 0 0.0 1.7 0.00 0.00 0.00 85 1010.3
20260830085555 71 0 0.0 0.0 0.00 0.00 0.00 85 1010.3